OE4EXE Weather Reports


time (UTC)temp
C
wind
direction
speed
KPH
gust
KPH
rain 1hr
cm
rain 24hr
cm
rain mn
cm
humidity
%
barometer
mb
20260506014403 13 225 8.0 16.1 0.00 0.00 0.00 72 1008.8
20260506014203 13 226 8.0 16.1 0.00 0.00 0.00 72 1008.6
20260506014003 13 224 8.0 16.1 0.00 0.00 0.00 72 1008.7
20260506013803 13 226 8.0 16.1 0.00 0.00 0.00 71 1008.6
20260506013403 13 231 9.7 17.7 0.00 0.00 0.00 71 1008.6
20260506013203 13 226 9.7 17.7 0.00 0.00 0.00 71 1008.6
20260506012803 14 219 11.3 17.7 0.00 0.00 0.00 71 1008.5
20260506012603 14 218 11.3 17.7 0.00 0.00 0.00 71 1008.4
20260506012403 14 217 11.3 17.7 0.00 0.00 0.00 71 1008.8
20260506012203 14 222 9.7 17.7 0.00 0.00 0.00 71 1008.3
20260506012003 14 227 9.7 17.7 0.00 0.00 0.00 71 1008.4
20260506011803 14 228 9.7 17.7 0.00 0.00 0.00 70 1008.4
20260506011603 14 225 9.7 17.7 0.00 0.00 0.00 70 1008.4
20260506011403 14 222 9.7 17.7 0.00 0.00 0.00 70 1008.6
20260506011203 14 225 9.7 20.9 0.00 0.00 0.00 70 1008.4
20260506011003 14 222 11.3 20.9 0.00 0.00 0.00 70 1008.4
20260506010803 14 218 11.3 20.9 0.00 0.00 0.00 70 1008.5
20260506010603 14 216 11.3 22.5 0.00 0.00 0.00 70 1008.4
20260506010403 14 224 12.9 22.5 0.00 0.00 0.00 70 1008.4
20260506010203 14 226 12.9 22.5 0.00 0.00 0.00 70 1008.2
20260506010003 14 224 11.3 22.5 0.00 0.00 0.00 70 1008.3
20260506005803 14 226 11.3 22.5 0.00 0.00 0.00 70 1008.3
20260506005603 14 229 11.3 22.5 0.00 0.00 0.00 70 1008.3
20260506005403 14 223 11.3 22.5 0.00 0.00 0.00 69 1008.3
20260506005203 14 218 11.3 22.5 0.00 0.00 0.00 69 1008.5
20260506005003 14 224 12.9 22.5 0.00 0.00 0.00 69 1008.3
20260506004803 14 227 14.5 22.5 0.00 0.00 0.00 69 1008.2
20260506004603 14 225 12.9 22.5 0.00 0.00 0.00 69 1008.4
20260506004403 14 230 14.5 22.5 0.00 0.00 0.00 69 1008.2
20260506004203 14 231 12.9 22.5 0.00 0.00 0.00 69 1008.4
20260506004003 14 226 12.9 22.5 0.00 0.00 0.00 69 1008.3
20260506003603 14 226 12.9 22.5 0.00 0.00 0.00 68 1008.1
20260506003203 14 220 11.3 22.5 0.00 0.00 0.00 68 1008.2
20260506003003 14 226 11.3 22.5 0.00 0.00 0.00 68 1008.2
20260506002803 14 225 11.3 22.5 0.00 0.00 0.00 68 1008.2
20260506002603 14 226 11.3 25.7 0.00 0.00 0.00 68 1008.1
20260506002403 14 225 11.3 25.7 0.00 0.00 0.00 68 1008.1
20260506002203 14 230 12.9 25.7 0.00 0.00 0.00 68 1008.2
20260506002003 14 229 12.9 25.7 0.00 0.00 0.00 68 1008.3
20260506001803 14 233 12.9 25.7 0.00 0.00 0.00 68 1008.0
20260506001003 14 234 12.9 29.0 0.00 0.00 0.00 67 1008.0
20260506000803 14 233 12.9 29.0 0.00 0.00 0.00 67 1007.9
20260506000603 14 233 14.5 29.0 0.00 0.00 0.00 67 1007.9
20260506000403 15 233 14.5 29.0 0.00 0.00 0.00 67 1008.1
20260506000204 15 233 14.5 29.0 0.00 0.00 0.00 67 1007.9
20260506000003 14 227 14.5 29.0 0.00 0.00 0.00 67 1008.0
20260505235803 15 222 14.5 22.5 0.00 0.00 0.00 67 1008.0
20260505235603 15 218 14.5 27.4 0.00 0.00 0.00 67 1008.1
20260505235403 15 216 14.5 29.0 0.00 0.00 0.00 67 1008.0
20260505235203 15 218 14.5 29.0 0.00 0.00 0.00 66 1007.9
20260505235003 15 227 14.5 29.0 0.00 0.00 0.00 66 1007.9
20260505234603 15 225 16.1 29.0 0.00 0.00 0.00 66 1008.0
20260505234403 15 223 14.5 29.0 0.00 0.00 0.00 66 1008.0
20260505234203 15 220 14.5 27.4 0.00 0.00 0.00 66 1007.9
20260505234003 15 214 14.5 27.4 0.00 0.00 0.00 66 1007.8
20260505233803 15 209 14.5 27.4 0.00 0.00 0.00 66 1007.8
20260505233603 15 211 12.9 25.7 0.00 0.00 0.00 66 1008.2
20260505233403 15 212 12.9 25.7 0.00 0.00 0.00 66 1008.0
20260505233203 15 211 14.5 25.7 0.00 0.00 0.00 65 1008.0
20260505233003 15 213 14.5 25.7 0.00 0.00 0.00 65 1008.0
20260505232603 15 215 16.1 29.0 0.00 0.00 0.00 65 1008.0
20260505232403 15 217 16.1 29.0 0.00 0.00 0.00 65 1007.9
20260505232003 15 214 14.5 29.0 0.00 0.00 0.00 65 1007.9
20260505231803 15 211 14.5 29.0 0.00 0.00 0.00 64 1008.0
20260505231603 15 215 14.5 29.0 0.00 0.00 0.00 64 1007.9
20260505231403 15 215 12.9 29.0 0.00 0.00 0.00 64 1007.8
20260505231003 15 223 16.1 30.6 0.00 0.00 0.00 64 1008.1
20260505230803 15 224 17.7 30.6 0.00 0.00 0.00 64 1008.2
20260505230603 15 223 17.7 30.6 0.00 0.00 0.00 64 1007.9
20260505230403 15 225 17.7 30.6 0.00 0.00 0.00 63 1007.9
20260505230203 15 218 17.7 30.6 0.00 0.00 0.00 64 1008.0
20260505230003 15 220 16.1 33.8 0.00 0.00 0.00 64 1008.1
20260505225803 15 218 14.5 33.8 0.00 0.00 0.00 63 1007.9
20260505225603 15 218 16.1 33.8 0.00 0.00 0.00 63 1007.9
20260505225403 15 215 16.1 33.8 0.00 0.00 0.00 63 1008.0
20260505225203 15 223 14.5 33.8 0.00 0.00 0.00 63 1008.0
20260505225003 15 220 14.5 33.8 0.00 0.00 0.00 63 1007.8
20260505224803 15 225 14.5 30.6 0.00 0.00 0.00 63 1008.2
20260505224603 15 224 14.5 30.6 0.00 0.00 0.00 63 1008.0
20260505224403 15 220 14.5 30.6 0.00 0.00 0.00 62 1008.0
20260505224203 15 217 16.1 30.6 0.00 0.00 0.00 62 1008.0
20260505224003 15 225 16.1 30.6 0.00 0.00 0.00 62 1008.0
20260505223803 15 221 16.1 29.0 0.00 0.00 0.00 62 1008.0
20260505223603 15 227 17.7 30.6 0.00 0.00 0.00 62 1007.8
20260505223403 15 236 17.7 32.2 0.00 0.00 0.00 62 1008.0
20260505223203 15 233 17.7 33.8 0.00 0.00 0.00 62 1007.8
20260505222603 16 233 16.1 33.8 0.00 0.00 0.00 61 1008.0
20260505222403 16 233 16.1 33.8 0.00 0.00 0.00 61 1007.9
20260505222003 16 235 14.5 32.2 0.00 0.00 0.00 61 1007.7
20260505221803 16 231 14.5 32.2 0.00 0.00 0.00 61 1007.8
20260505221603 16 230 17.7 32.2 0.00 0.00 0.00 61 1007.7
20260505221203 16 233 19.3 30.6 0.00 0.00 0.00 61 1007.9
20260505221003 16 230 19.3 30.6 0.00 0.00 0.00 60 1007.7
20260505220803 16 231 17.7 30.6 0.00 0.00 0.00 60 1007.7
20260505220603 16 233 17.7 32.2 0.00 0.00 0.00 60 1007.5
20260505220403 16 233 16.1 32.2 0.00 0.00 0.00 60 1007.7
20260505220203 16 232 14.5 32.2 0.00 0.00 0.00 60 1007.7
20260505220012 16 237 14.5 33.8 0.00 0.00 0.00 60 1007.6
20260505215603 16 237 14.5 33.8 0.00 0.00 0.00 60 1007.5
20260505215403 16 239 17.7 33.8 0.00 0.00 0.00 60 1007.4
20260505215203 16 232 17.7 33.8 0.00 0.00 0.00 59 1007.5
20260505215003 16 223 17.7 33.8 0.00 0.00 0.00 59 1007.5
20260505214803 16 221 19.3 30.6 0.00 0.00 0.00 59 1007.6
20260505214403 16 217 19.3 33.8 0.00 0.00 0.00 59 1007.4
20260505214203 16 218 19.3 33.8 0.00 0.00 0.00 59 1007.4
20260505213803 16 221 20.9 40.2 0.00 0.00 0.00 59 1007.5
20260505213603 16 222 22.5 40.2 0.00 0.00 0.00 58 1007.7
20260505213403 16 223 20.9 40.2 0.00 0.00 0.00 58 1007.7
20260505213203 16 225 20.9 40.2 0.00 0.00 0.00 58 1007.5
20260505213003 16 231 22.5 40.2 0.00 0.00 0.00 58 1007.5
20260505212803 16 226 22.5 40.2 0.00 0.00 0.00 58 1007.4
20260505212603 16 221 24.1 38.6 0.00 0.00 0.00 58 1007.3
20260505212403 16 214 24.1 38.6 0.00 0.00 0.00 58 1007.3
20260505212203 16 212 22.5 38.6 0.00 0.00 0.00 57 1007.3
20260505212003 16 211 24.1 38.6 0.00 0.00 0.00 57 1007.1
20260505211803 16 208 22.5 38.6 0.00 0.00 0.00 57 1007.2
20260505211603 16 211 20.9 38.6 0.00 0.00 0.00 57 1007.2
20260505211403 16 219 19.3 38.6 0.00 0.00 0.00 57 1007.4
20260505211203 16 223 19.3 45.1 0.00 0.00 0.00 57 1007.5
20260505211003 16 227 19.3 45.1 0.00 0.00 0.00 56 1007.4
20260505210203 17 225 20.9 45.1 0.00 0.00 0.00 55 1007.3
20260505210003 17 215 22.5 40.2 0.00 0.00 0.00 55 1007.4
20260505205803 17 215 22.5 40.2 0.00 0.00 0.00 55 1007.5
20260505205603 17 215 22.5 40.2 0.00 0.00 0.00 55 1007.3
20260505205203 17 213 19.3 40.2 0.00 0.00 0.00 54 1007.4
20260505204803 17 213 16.1 37.0 0.00 0.00 0.00 55 1007.4
20260505204603 17 215 14.5 33.8 0.00 0.00 0.00 54 1007.5
20260505204203 17 218 19.3 33.8 0.00 0.00 0.00 54 1007.6
20260505204003 17 219 19.3 33.8 0.00 0.00 0.00 54 1007.6
20260505203803 17 219 19.3 33.8 0.00 0.00 0.00 53 1007.8
20260505203603 17 227 19.3 33.8 0.00 0.00 0.00 53 1007.7
20260505203403 17 227 19.3 37.0 0.00 0.00 0.00 53 1007.6
20260505202803 17 230 17.7 37.0 0.00 0.00 0.00 53 1007.4
20260505202403 17 225 20.9 38.6 0.00 0.00 0.00 53 1007.6
20260505201803 17 226 22.5 38.6 0.00 0.00 0.00 52 1007.6
20260505201603 17 221 20.9 38.6 0.00 0.00 0.00 52 1007.5
20260505201403 17 227 20.9 38.6 0.00 0.00 0.00 52 1007.5
20260505201203 17 227 20.9 40.2 0.00 0.00 0.00 52 1007.6
20260505201003 17 229 20.9 40.2 0.00 0.00 0.00 51 1007.6
20260505200803 17 231 20.9 40.2 0.00 0.00 0.00 51 1007.6
20260505200603 17 237 20.9 40.2 0.00 0.00 0.00 51 1007.5
20260505200403 17 237 19.3 40.2 0.00 0.00 0.00 51 1007.7
20260505195803 18 242 17.7 37.0 0.00 0.00 0.00 51 1007.6
20260505195603 18 238 17.7 37.0 0.00 0.00 0.00 51 1007.5
20260505195403 18 234 17.7 37.0 0.00 0.00 0.00 50 1007.6
20260505195003 18 225 20.9 37.0 0.00 0.00 0.00 50 1007.5
20260505194803 18 227 20.9 37.0 0.00 0.00 0.00 50 1007.7
20260505194603 18 224 22.5 40.2 0.00 0.00 0.00 50 1007.8
20260505194203 18 226 25.7 43.5 0.00 0.00 0.00 49 1007.4
20260505194003 18 220 24.1 49.9 0.00 0.00 0.00 49 1007.5
20260505193603 18 218 22.5 49.9 0.00 0.00 0.00 48 1007.4
20260505193403 18 214 22.5 49.9 0.00 0.00 0.00 48 1007.4
20260505193203 18 217 19.3 49.9 0.00 0.00 0.00 48 1007.7
20260505193003 18 222 19.3 49.9 0.00 0.00 0.00 48 1007.4
20260505192803 18 224 19.3 37.0 0.00 0.00 0.00 48 1007.5
20260505192603 18 228 20.9 37.0 0.00 0.00 0.00 48 1007.4
20260505192203 18 220 22.5 37.0 0.00 0.00 0.00 48 1007.6
20260505192003 18 221 20.9 37.0 0.00 0.00 0.00 48 1007.6
20260505191803 18 214 20.9 35.4 0.00 0.00 0.00 47 1007.5
20260505191603 18 210 19.3 35.4 0.00 0.00 0.00 47 1007.7
20260505191403 18 215 19.3 35.4 0.00 0.00 0.00 47 1007.7
20260505191203 18 216 19.3 33.8 0.00 0.00 0.00 48 1007.6
20260505190803 18 219 20.9 45.1 0.00 0.00 0.00 47 1007.7
20260505190603 18 226 20.9 45.1 0.00 0.00 0.00 47 1007.5
20260505190403 19 226 20.9 45.1 0.00 0.00 0.00 47 1007.7
20260505190204 19 228 20.9 45.1 0.00 0.00 0.00 47 1007.5
20260505190003 19 227 20.9 45.1 0.00 0.00 0.00 46 1007.6
20260505185803 19 230 20.9 45.1 0.00 0.00 0.00 46 1007.6
20260505185603 19 228 19.3 35.4 0.00 0.00 0.00 46 1007.4
20260505185403 19 226 17.7 35.4 0.00 0.00 0.00 46 1007.5
20260505185203 19 222 17.7 35.4 0.00 0.00 0.00 46 1007.6
20260505184803 19 219 16.1 33.8 0.00 0.00 0.00 47 1007.6
20260505184603 19 214 17.7 33.8 0.00 0.00 0.00 47 1007.6
20260505184403 19 219 19.3 35.4 0.00 0.00 0.00 47 1007.4
20260505184003 19 215 20.9 38.6 0.00 0.00 0.00 47 1007.5
20260505183803 19 217 20.9 38.6 0.00 0.00 0.00 47 1007.4
20260505183603 19 216 22.5 38.6 0.00 0.00 0.00 46 1007.5
20260505183403 19 213 22.5 38.6 0.00 0.00 0.00 46 1007.5
20260505183203 19 216 22.5 38.6 0.00 0.00 0.00 47 1007.4
20260505183003 19 215 24.1 37.0 0.00 0.00 0.00 47 1007.5
20260505182803 19 212 22.5 37.0 0.00 0.00 0.00 46 1007.5
20260505182603 19 213 22.5 37.0 0.00 0.00 0.00 46 1007.4
20260505182403 19 217 22.5 37.0 0.00 0.00 0.00 46 1007.6
20260505182003 19 222 20.9 38.6 0.00 0.00 0.00 46 1007.4
20260505181803 20 221 19.3 38.6 0.00 0.00 0.00 46 1007.5
20260505181603 20 223 19.3 38.6 0.00 0.00 0.00 46 1007.5
20260505181203 20 228 20.9 38.6 0.00 0.00 0.00 46 1007.6
20260505181003 20 225 19.3 38.6 0.00 0.00 0.00 46 1007.5
20260505180803 20 228 19.3 37.0 0.00 0.00 0.00 46 1007.3
20260505180403 20 231 17.7 37.0 0.00 0.00 0.00 46 1007.5
20260505180203 20 230 16.1 37.0 0.00 0.00 0.00 46 1007.4
20260505180003 20 228 17.7 37.0 0.00 0.00 0.00 46 1007.5
20260505175803 20 229 19.3 37.0 0.00 0.00 0.00 46 1007.5
20260505175603 20 223 17.7 37.0 0.00 0.00 0.00 46 1007.4
20260505175203 20 225 19.3 37.0 0.00 0.00 0.00 46 1007.6
20260505175003 20 228 19.3 40.2 0.00 0.00 0.00 46 1007.4
20260505174803 20 226 20.9 40.2 0.00 0.00 0.00 46 1007.6
20260505174603 20 231 20.9 40.2 0.00 0.00 0.00 46 1007.8
20260505174203 20 225 22.5 40.2 0.00 0.00 0.00 45 1007.6
20260505174003 20 229 22.5 40.2 0.00 0.00 0.00 45 1007.6
20260505173403 20 230 20.9 37.0 0.00 0.00 0.00 45 1007.5
20260505173203 20 238 22.5 37.0 0.00 0.00 0.00 44 1007.4
20260505173003 20 237 20.9 37.0 0.00 0.00 0.00 44 1007.7
20260505172803 20 247 19.3 35.4 0.00 0.00 0.00 44 1007.7
20260505172403 20 249 19.3 33.8 0.00 0.00 0.00 44 1007.7
20260505172203 21 245 17.7 33.8 0.00 0.00 0.00 44 1007.7
20260505171803 21 234 19.3 43.5 0.00 0.00 0.00 43 1007.8
20260505171603 21 234 19.3 43.5 0.00 0.00 0.00 43 1007.7
20260505171403 21 230 19.3 43.5 0.00 0.00 0.00 43 1007.6
20260505171203 21 233 19.3 43.5 0.00 0.00 0.00 43 1007.9
20260505170803 21 234 19.3 43.5 0.00 0.00 0.00 42 1007.6
20260505170603 21 227 19.3 37.0 0.00 0.00 0.00 42 1007.8
20260505170403 21 223 20.9 37.0 0.00 0.00 0.00 42 1007.9
20260505170203 21 222 22.5 37.0 0.00 0.00 0.00 42 1007.8
20260505165803 21 221 24.1 38.6 0.00 0.00 0.00 41 1007.6
20260505165403 21 218 24.1 41.8 0.00 0.00 0.00 41 1007.8
20260505165203 21 218 24.1 41.8 0.00 0.00 0.00 41 1007.7
20260505165003 21 217 22.5 41.8 0.00 0.00 0.00 41 1007.6
20260505164603 21 218 24.1 41.8 0.00 0.00 0.00 40 1007.7
20260505164003 21 230 22.5 37.0 0.00 0.00 0.00 39 1007.6
20260505163803 21 228 22.5 40.2 0.00 0.00 0.00 39 1007.8
20260505163603 21 224 22.5 40.2 0.00 0.00 0.00 39 1008.0
20260505163403 21 223 22.5 40.2 0.00 0.00 0.00 39 1008.0
20260505163203 21 222 22.5 40.2 0.00 0.00 0.00 39 1007.9
20260505163003 21 223 20.9 40.2 0.00 0.00 0.00 39 1008.1
20260505162803 21 227 20.9 43.5 0.00 0.00 0.00 38 1008.0
20260505162603 21 230 20.9 43.5 0.00 0.00 0.00 38 1008.0
20260505162403 21 227 20.9 43.5 0.00 0.00 0.00 38 1007.9
20260505162003 21 227 22.5 43.5 0.00 0.00 0.00 37 1008.2
20260505161603 21 227 25.7 43.5 0.00 0.00 0.00 37 1007.9
20260505161403 21 231 25.7 49.9 0.00 0.00 0.00 36 1008.3
20260505161203 21 227 25.7 49.9 0.00 0.00 0.00 36 1008.0
20260505161003 21 224 25.7 49.9 0.00 0.00 0.00 36 1008.2
20260505160803 21 220 25.7 49.9 0.00 0.00 0.00 36 1008.3
20260505160603 21 218 25.7 49.9 0.00 0.00 0.00 36 1008.3
20260505160403 21 213 25.7 49.9 0.00 0.00 0.00 36 1008.2
20260505160203 21 213 27.4 49.9 0.00 0.00 0.00 36 1008.5
20260505153203 22 220 25.7 49.9 0.00 0.00 0.00 38 1008.3
20260505153003 22 215 25.7 49.9 0.00 0.00 0.00 38 1008.4
20260505152803 22 213 25.7 49.9 0.00 0.00 0.00 38 1008.3
20260505152603 22 214 25.7 49.9 0.00 0.00 0.00 38 1008.4
20260505152403 22 211 25.7 49.9 0.00 0.00 0.00 38 1008.4
20260505152203 22 213 25.7 45.1 0.00 0.00 0.00 38 1008.4
20260505152003 22 223 24.1 46.7 0.00 0.00 0.00 38 1008.4
20260505151603 22 230 25.7 46.7 0.00 0.00 0.00 38 1008.6
20260505151403 22 239 25.7 46.7 0.00 0.00 0.00 38 1008.5
20260505151203 22 239 25.7 46.7 0.00 0.00 0.00 38 1008.4
20260505151003 22 237 25.7 46.7 0.00 0.00 0.00 37 1008.7
20260505150803 22 238 25.7 57.9 0.00 0.00 0.00 37 1008.6
20260505150603 22 230 25.7 57.9 0.00 0.00 0.00 37 1008.5
20260505150403 22 223 25.7 57.9 0.00 0.00 0.00 37 1008.5
20260505140603 24 222 30.6 53.1 0.00 0.00 0.00 34 1008.4
20260505140403 24 228 29.0 53.1 0.00 0.00 0.00 34 1008.6
20260505140203 24 234 30.6 51.5 0.00 0.00 0.00 33 1008.4
20260505130203 26 221 25.7 49.9 0.00 0.00 0.00 31 1008.3
20260505125003 26 226 24.1 49.9 0.00 0.00 0.00 31 1008.3
20260505124403 26 222 24.1 45.1 0.00 0.00 0.00 30 1008.4
20260505124203 26 232 24.1 45.1 0.00 0.00 0.00 30 1008.5
20260505123803 26 242 24.1 45.1 0.00 0.00 0.00 30 1008.6
20260505123603 26 237 25.7 45.1 0.00 0.00 0.00 30 1008.6
20260505123203 26 227 25.7 45.1 0.00 0.00 0.00 30 1008.6
20260505122803 26 224 24.1 45.1 0.00 0.00 0.00 30 1008.7
20260505122603 26 228 25.7 45.1 0.00 0.00 0.00 30 1008.7
20260505122403 26 227 24.1 48.3 0.00 0.00 0.00 29 1008.7
20260505122203 26 221 24.1 48.3 0.00 0.00 0.00 30 1008.8
20260505122003 26 222 24.1 48.3 0.00 0.00 0.00 30 1008.6
20260505121803 26 225 24.1 48.3 0.00 0.00 0.00 30 1008.8
20260505121403 26 224 22.5 48.3 0.00 0.00 0.00 30 1008.6
20260505121203 26 230 22.5 48.3 0.00 0.00 0.00 30 1008.7
20260505121003 26 222 25.7 48.3 0.00 0.00 0.00 31 1008.7
20260505120603 26 220 27.4 48.3 0.00 0.00 0.00 31 1008.7
20260505120403 26 219 27.4 48.3 0.00 0.00 0.00 30 1008.5
20260505120203 26 223 25.7 48.3 0.00 0.00 0.00 30 1009.0
20260505115803 26 222 25.7 45.1 0.00 0.00 0.00 31 1008.7
20260505115603 26 227 24.1 45.1 0.00 0.00 0.00 30 1008.7
20260505115403 26 234 24.1 45.1 0.00 0.00 0.00 30 1008.8
20260505115203 26 234 24.1 45.1 0.00 0.00 0.00 30 1008.6
20260505114404 26 232 24.1 41.8 0.00 0.00 0.00 28 1008.7
20260505114203 26 228 22.5 41.8 0.00 0.00 0.00 27 1008.8
20260505114003 26 229 24.1 38.6 0.00 0.00 0.00 27 1008.7
20260505113803 26 234 22.5 38.6 0.00 0.00 0.00 28 1008.7
20260505113403 26 238 22.5 41.8 0.00 0.00 0.00 27 1008.9
20260505113203 26 239 22.5 41.8 0.00 0.00 0.00 27 1008.8
20260505113003 26 240 22.5 41.8 0.00 0.00 0.00 28 1009.0
20260505112803 26 236 20.9 41.8 0.00 0.00 0.00 27 1008.8
20260505112403 26 228 20.9 37.0 0.00 0.00 0.00 27 1009.1
20260505112208 26 222 20.9 37.0 0.00 0.00 0.00 27 1008.9
20260505112009 26 220 20.9 37.0 0.00 0.00 0.00 27 1009.1
20260505111805 26 224 22.5 37.0 0.00 0.00 0.00 27 1009.0
20260505111603 26 218 24.1 37.0 0.00 0.00 0.00 27 1009.0
20260505111403 25 215 24.1 37.0 0.00 0.00 0.00 27 1008.9
20260505111206 25 212 22.5 38.6 0.00 0.00 0.00 27 1009.1
20260505111003 25 219 24.1 38.6 0.00 0.00 0.00 28 1009.2
20260505110604 25 223 22.5 38.6 0.00 0.00 0.00 28 1009.3
20260505110403 25 222 22.5 38.6 0.00 0.00 0.00 27 1009.3
20260505110203 25 228 24.1 38.6 0.00 0.00 0.00 27 1009.2
20260505102203 23 211 20.9 40.2 0.00 0.00 0.00 34 1009.8
20260505102013 23 204 20.9 40.2 0.00 0.00 0.00 34 1009.8
20260505101822 22 212 20.9 40.2 0.00 0.00 0.00 35 1009.9
20260505101609 22 216 19.3 40.2 0.00 0.00 0.00 36 1009.8
20260505101204 22 225 16.1 33.8 0.00 0.00 0.00 37 1009.9
20260505101003 22 226 17.7 33.8 0.00 0.00 0.00 37 1009.9
20260505100803 22 224 17.7 38.6 0.00 0.00 0.00 37 1010.1
20260505100608 22 216 19.3 38.6 0.00 0.00 0.00 37 1009.9
20260505100406 22 221 19.3 38.6 0.00 0.00 0.00 37 1010.1
20260505100004 22 215 20.9 38.6 0.00 0.00 0.00 36 1010.0
20260505095804 23 216 20.9 38.6 0.00 0.00 0.00 36 1010.1
20260505095606 22 218 20.9 37.0 0.00 0.00 0.00 37 1010.1
20260505095403 22 215 20.9 37.0 0.00 0.00 0.00 37 1010.1
20260505095216 22 211 20.9 37.0 0.00 0.00 0.00 37 1010.1
20260505094805 22 218 19.3 37.0 0.00 0.00 0.00 38 1010.1
20260505094403 22 215 17.7 37.0 0.00 0.00 0.00 38 1009.9
20260505094204 22 217 17.7 37.0 0.00 0.00 0.00 39 1009.9
20260505093805 21 219 17.7 32.2 0.00 0.00 0.00 40 1010.1
20260505093603 21 221 20.9 35.4 0.00 0.00 0.00 40 1010.0
20260505093408 21 221 20.9 35.4 0.00 0.00 0.00 40 1010.0
20260505093204 21 221 20.9 35.4 0.00 0.00 0.00 40 1010.1
20260505093003 21 216 22.5 35.4 0.00 0.00 0.00 40 1010.2
20260505092804 21 211 22.5 35.4 0.00 0.00 0.00 40 1010.0
20260505092603 21 212 22.5 35.4 0.00 0.00 0.00 40 1010.2
20260505092404 21 210 20.9 32.2 0.00 0.00 0.00 40 1010.1
20260505092203 21 215 20.9 32.2 0.00 0.00 0.00 40 1010.0
20260505092003 21 216 20.9 32.2 0.00 0.00 0.00 40 1010.1
20260505091804 21 217 19.3 32.2 0.00 0.00 0.00 40 1010.2
20260505091603 21 224 19.3 33.8 0.00 0.00 0.00 40 1010.2
20260505091406 21 224 19.3 40.2 0.00 0.00 0.00 39 1010.1
20260505091205 21 220 20.9 40.2 0.00 0.00 0.00 39 1010.3
20260505091004 21 218 20.9 40.2 0.00 0.00 0.00 39 1010.2
20260505090808 21 220 20.9 40.2 0.00 0.00 0.00 38 1010.2
20260505090605 21 218 20.9 40.2 0.00 0.00 0.00 39 1010.3
20260505090404 21 220 20.9 40.2 0.00 0.00 0.00 38 1010.1
20260505090003 21 216 19.3 38.6 0.00 0.00 0.00 39 1010.2
20260505085803 21 213 19.3 38.6 0.00 0.00 0.00 39 1010.3
20260505085608 21 209 19.3 38.6 0.00 0.00 0.00 39 1010.1
20260505085403 21 210 19.3 40.2 0.00 0.00 0.00 38 1010.1
20260505085208 21 212 20.9 40.2 0.00 0.00 0.00 39 1010.0
20260505085004 21 209 20.9 40.2 0.00 0.00 0.00 39 1010.2
20260505084809 21 211 22.5 40.2 0.00 0.00 0.00 39 1010.2
20260505084609 21 211 22.5 40.2 0.00 0.00 0.00 39 1010.2
20260505084408 21 211 24.1 40.2 0.00 0.00 0.00 39 1010.2
20260505084215 21 210 24.1 41.8 0.00 0.00 0.00 38 1010.2
20260505084007 21 213 24.1 41.8 0.00 0.00 0.00 38 1010.2
20260505083808 21 214 24.1 41.8 0.00 0.00 0.00 38 1010.2
20260505083603 20 214 24.1 41.8 0.00 0.00 0.00 38 1010.1
20260505083403 21 211 25.7 41.8 0.00 0.00 0.00 38 1010.3
20260505083003 21 209 25.7 37.0 0.00 0.00 0.00 39 1010.1
20260505082804 20 209 25.7 37.0 0.00 0.00 0.00 39 1010.2
20260505082611 21 207 24.1 37.0 0.00 0.00 0.00 39 1010.3
20260505082409 21 212 24.1 33.8 0.00 0.00 0.00 39 1010.3
20260505082208 21 210 22.5 33.8 0.00 0.00 0.00 39 1010.0
20260505082003 21 218 24.1 33.8 0.00 0.00 0.00 38 1010.1
20260505081803 21 218 22.5 33.8 0.00 0.00 0.00 38 1010.1
20260505081603 21 216 22.5 33.8 0.00 0.00 0.00 38 1010.0
20260505081403 21 212 22.5 33.8 0.00 0.00 0.00 38 1010.2
20260505081203 21 212 20.9 33.8 0.00 0.00 0.00 38 1010.1
20260505081003 21 208 20.9 33.8 0.00 0.00 0.00 39 1009.9
20260505080803 21 209 19.3 32.2 0.00 0.00 0.00 39 1010.0
20260505080603 21 212 20.9 32.2 0.00 0.00 0.00 40 1010.2
20260505080403 21 211 19.3 32.2 0.00 0.00 0.00 40 1010.2
20260505080203 21 219 20.9 35.4 0.00 0.00 0.00 40 1010.2
20260505080003 20 217 20.9 35.4 0.00 0.00 0.00 40 1010.2
20260505075603 20 218 19.3 35.4 0.00 0.00 0.00 39 1010.2
20260505075403 20 219 19.3 35.4 0.00 0.00 0.00 39 1010.1
20260505075203 20 214 19.3 35.4 0.00 0.00 0.00 39 1010.3
20260505075003 20 215 19.3 32.2 0.00 0.00 0.00 39 1010.1
20260505074803 20 213 17.7 32.2 0.00 0.00 0.00 40 1010.4
20260505074403 20 211 16.1 33.8 0.00 0.00 0.00 41 1010.2
20260505074203 20 215 17.7 33.8 0.00 0.00 0.00 42 1010.1
20260505074003 20 213 17.7 33.8 0.00 0.00 0.00 42 1010.4
20260505073603 20 219 19.3 33.8 0.00 0.00 0.00 43 1010.4
20260505073403 20 218 19.3 33.8 0.00 0.00 0.00 42 1010.3
20260505073203 20 208 19.3 37.0 0.00 0.00 0.00 42 1010.3
20260505073003 20 212 17.7 37.0 0.00 0.00 0.00 42 1010.3
20260505072803 19 213 16.1 37.0 0.00 0.00 0.00 43 1010.3
20260505072203 19 225 14.5 37.0 0.00 0.00 0.00 44 1010.5
20260505072003 19 228 12.9 27.4 0.00 0.00 0.00 44 1010.5
20260505071603 19 226 12.9 27.4 0.00 0.00 0.00 44 1010.4
20260505071203 18 222 14.5 30.6 0.00 0.00 0.00 47 1010.6
20260505071003 18 217 16.1 33.8 0.00 0.00 0.00 47 1010.4
20260505070803 18 219 17.7 33.8 0.00 0.00 0.00 47 1010.5
20260505070603 18 216 17.7 33.8 0.00 0.00 0.00 47 1010.5
20260505070403 18 216 19.3 33.8 0.00 0.00 0.00 47 1010.6
20260505070203 18 212 19.3 33.8 0.00 0.00 0.00 47 1010.5
20260505070003 18 216 19.3 33.8 0.00 0.00 0.00 48 1010.6
20260505065803 18 206 19.3 32.2 0.00 0.00 0.00 48 1010.4
20260505065603 17 207 19.3 32.2 0.00 0.00 0.00 48 1010.7
20260505065403 17 207 17.7 32.2 0.00 0.00 0.00 48 1010.4
20260505065203 17 211 16.1 33.8 0.00 0.00 0.00 49 1010.5
20260505065003 17 207 17.7 33.8 0.00 0.00 0.00 49 1010.5
20260505064803 17 210 17.7 33.8 0.00 0.00 0.00 50 1010.5
20260505064603 17 211 17.7 33.8 0.00 0.00 0.00 50 1010.4
20260505064403 17 210 16.1 33.8 0.00 0.00 0.00 50 1010.5
20260505064203 16 207 17.7 33.8 0.00 0.00 0.00 51 1010.7
20260505064003 16 207 17.7 30.6 0.00 0.00 0.00 51 1010.6
20260505063803 16 208 17.7 30.6 0.00 0.00 0.00 51 1010.6
20260505063603 16 204 17.7 30.6 0.00 0.00 0.00 52 1010.6
20260505063403 16 208 17.7 30.6 0.00 0.00 0.00 52 1010.4
20260505063203 16 209 19.3 30.6 0.00 0.00 0.00 52 1010.5
20260505063003 16 207 19.3 30.6 0.00 0.00 0.00 52 1010.5
20260505062803 16 208 19.3 30.6 0.00 0.00 0.00 52 1010.4
20260505062403 16 205 17.7 32.2 0.00 0.00 0.00 52 1010.6
20260505062203 16 200 17.7 33.8 0.00 0.00 0.00 52 1010.6
20260505062003 16 199 19.3 33.8 0.00 0.00 0.00 52 1010.5
20260505061803 16 197 19.3 33.8 0.00 0.00 0.00 53 1010.6
20260505061203 15 206 20.9 33.8 0.00 0.00 0.00 53 1010.5
20260505061003 15 205 20.9 33.8 0.00 0.00 0.00 53 1010.5
20260505060803 15 205 20.9 37.0 0.00 0.00 0.00 54 1010.6
20260505060603 15 206 22.5 37.0 0.00 0.00 0.00 54 1010.7
20260505060403 15 206 22.5 37.0 0.00 0.00 0.00 54 1010.7
20260505060203 15 206 22.5 37.0 0.00 0.00 0.00 54 1010.7
20260505060003 15 209 24.1 40.2 0.00 0.00 0.00 54 1010.5
20260505055803 15 210 24.1 40.2 0.00 0.00 0.00 54 1010.7
20260505055603 15 211 22.5 40.2 0.00 0.00 0.00 55 1010.3
20260505055403 15 209 22.5 40.2 0.00 0.00 0.00 55 1010.5
20260505055203 15 209 22.5 40.2 0.00 0.00 0.00 55 1010.7
20260505055003 15 210 20.9 40.2 0.00 0.00 0.00 56 1010.7
20260505054803 15 211 19.3 33.8 0.00 0.00 0.00 56 1010.5
20260505054603 15 209 20.9 33.8 0.00 0.00 0.00 57 1010.5
20260505054403 14 209 20.9 33.8 0.00 0.00 0.00 57 1010.5
20260505054203 14 210 20.9 32.2 0.00 0.00 0.00 58 1010.5
20260505053803 13 208 20.9 30.6 0.00 0.00 0.00 59 1010.4
20260505053603 13 209 20.9 30.6 0.00 0.00 0.00 59 1010.5
20260505053403 13 209 19.3 30.6 0.00 0.00 0.00 59 1010.3
20260505053203 13 209 19.3 30.6 0.00 0.00 0.00 59 1010.3
20260505053003 13 210 19.3 30.6 0.00 0.00 0.00 59 1010.4
20260505052803 13 209 17.7 30.6 0.00 0.00 0.00 59 1010.5
20260505052603 13 207 17.7 30.6 0.00 0.00 0.00 59 1010.6
20260505052403 13 207 19.3 30.6 0.00 0.00 0.00 59 1010.5
20260505052203 13 206 19.3 30.6 0.00 0.00 0.00 59 1010.4
20260505051803 13 205 17.7 29.0 0.00 0.00 0.00 59 1010.4
20260505051603 13 206 17.7 27.4 0.00 0.00 0.00 59 1010.5
20260505051403 13 205 17.7 27.4 0.00 0.00 0.00 60 1010.5
20260505051203 13 205 19.3 27.4 0.00 0.00 0.00 60 1010.4
20260505051003 13 205 17.7 33.8 0.00 0.00 0.00 60 1010.5
20260505050803 13 205 17.7 33.8 0.00 0.00 0.00 60 1010.6
20260505050403 13 208 17.7 33.8 0.00 0.00 0.00 60 1010.3
20260505050203 13 210 17.7 33.8 0.00 0.00 0.00 60 1010.4
20260505041603 11 228 8.0 14.5 0.00 0.00 0.00 65 1010.6
20260505041203 11 232 6.4 16.1 0.00 0.00 0.00 65 1010.7
20260505041003 11 233 6.4 19.3 0.00 0.00 0.00 65 1010.5
20260505040803 11 230 8.0 20.9 0.00 0.00 0.00 65 1010.7
20260505040603 12 229 8.0 20.9 0.00 0.00 0.00 65 1010.9
20260505040403 12 228 8.0 20.9 0.00 0.00 0.00 65 1010.7
20260505040203 12 230 8.0 20.9 0.00 0.00 0.00 65 1010.7
20260505040004 12 228 8.0 20.9 0.00 0.00 0.00 64 1010.5
20260505035803 12 225 8.0 20.9 0.00 0.00 0.00 64 1010.6
20260505035603 12 227 6.4 20.9 0.00 0.00 0.00 64 1010.6
20260505035403 12 226 8.0 20.9 0.00 0.00 0.00 64 1010.7
20260505035203 12 226 8.0 20.9 0.00 0.00 0.00 64 1010.8
20260505035003 12 224 8.0 20.9 0.00 0.00 0.00 64 1010.5
20260505034803 12 223 9.7 19.3 0.00 0.00 0.00 64 1010.5
20260505034403 12 218 11.3 17.7 0.00 0.00 0.00 63 1010.6
20260505034203 12 218 11.3 17.7 0.00 0.00 0.00 63 1010.6
20260505034003 12 216 11.3 19.3 0.00 0.00 0.00 63 1010.7
20260505033803 12 219 11.3 19.3 0.00 0.00 0.00 63 1010.6
20260505033603 12 221 11.3 19.3 0.00 0.00 0.00 63 1010.6
20260505033403 12 221 9.7 19.3 0.00 0.00 0.00 62 1010.6
20260505033203 12 226 9.7 19.3 0.00 0.00 0.00 62 1010.6
20260505033003 12 231 9.7 19.3 0.00 0.00 0.00 62 1010.6
20260505032803 12 234 8.0 17.7 0.00 0.00 0.00 62 1010.6
20260505032603 12 229 8.0 17.7 0.00 0.00 0.00 62 1010.7
20260505032403 12 227 8.0 16.1 0.00 0.00 0.00 62 1010.4
20260505032203 12 220 8.0 16.1 0.00 0.00 0.00 62 1010.7
20260505031803 12 216 8.0 17.7 0.00 0.00 0.00 61 1010.6
20260505031603 12 224 9.7 17.7 0.00 0.00 0.00 61 1010.7
20260505031403 12 224 9.7 17.7 0.00 0.00 0.00 60 1010.8
20260505031203 13 222 9.7 17.7 0.00 0.00 0.00 60 1010.7
20260505031003 13 224 9.7 20.9 0.00 0.00 0.00 60 1010.6
20260505030603 13 216 11.3 20.9 0.00 0.00 0.00 60 1010.8
20260505030403 13 213 11.3 20.9 0.00 0.00 0.00 60 1010.5
20260505030203 13 216 12.9 20.9 0.00 0.00 0.00 60 1010.6
20260505025603 13 214 12.9 24.1 0.00 0.00 0.00 59 1010.5
20260505025403 13 221 12.9 24.1 0.00 0.00 0.00 59 1010.6
20260505025203 13 216 12.9 24.1 0.00 0.00 0.00 59 1010.6
20260505025003 13 214 12.9 24.1 0.00 0.00 0.00 58 1010.5
20260505024603 13 218 14.5 24.1 0.00 0.00 0.00 58 1010.7
20260505024403 13 214 12.9 24.1 0.00 0.00 0.00 58 1010.7
20260505024203 13 216 12.9 22.5 0.00 0.00 0.00 58 1010.8
20260505024003 13 215 12.9 22.5 0.00 0.00 0.00 58 1010.7
20260505023803 13 220 11.3 22.5 0.00 0.00 0.00 58 1010.8
20260505023603 13 220 9.7 22.5 0.00 0.00 0.00 58 1010.7
20260505023403 13 224 9.7 22.5 0.00 0.00 0.00 58 1010.7
20260505023203 13 225 9.7 22.5 0.00 0.00 0.00 58 1010.8
20260505023003 13 230 9.7 19.3 0.00 0.00 0.00 58 1010.9
20260505022803 13 223 9.7 19.3 0.00 0.00 0.00 58 1010.8
20260505022603 13 224 9.7 19.3 0.00 0.00 0.00 58 1010.6
20260505022403 13 221 11.3 19.3 0.00 0.00 0.00 58 1010.9
20260505022203 13 218 9.7 19.3 0.00 0.00 0.00 58 1011.0
20260505022003 13 220 9.7 19.3 0.00 0.00 0.00 57 1010.8
20260505021803 13 229 8.0 19.3 0.00 0.00 0.00 57 1010.9
20260505021603 13 216 8.0 19.3 0.00 0.00 0.00 58 1010.9
20260505021403 13 218 8.0 17.7 0.00 0.00 0.00 58 1011.0
20260505021203 13 222 6.4 17.7 0.00 0.00 0.00 58 1011.1
20260505021003 13 221 6.4 17.7 0.00 0.00 0.00 58 1011.0
20260505020803 13 215 6.4 17.7 0.00 0.00 0.00 58 1010.9
20260505020603 13 227 6.4 12.9 0.00 0.00 0.00 58 1011.1
20260505020403 13 227 4.8 12.9 0.00 0.00 0.00 58 1011.0
20260505020203 13 233 4.8 11.3 0.00 0.00 0.00 58 1010.8
20260505020003 13 232 4.8 11.3 0.00 0.00 0.00 58 1011.0
20260505015803 13 236 4.8 11.3 0.00 0.00 0.00 58 1011.1
20260505015603 13 239 3.2 11.3 0.00 0.00 0.00 58 1011.0
20260505015403 13 243 3.2 11.3 0.00 0.00 0.00 58 1011.2
20260505015203 13 235 3.2 11.3 0.00 0.00 0.00 58 1011.2
20260505014803 13 220 3.2 8.0 0.00 0.00 0.00 58 1011.1
20260505014603 13 218 3.2 8.0 0.00 0.00 0.00 57 1011.0